"Pseudo-MPEC" for M45F201

Created 2023 Dec 2 1:22:03 UT using Find_Orb

Click here for an explanation of pseudo-MPECs

 
 Astrometry: 
     M45F201*KB2023 11 12DilCngL_c'*hUu)e?dIaCnKcD0sOxsk;gXgmr*NAstrometryL]QM45
     M45F201 KB2023 11 12V#KtL2qu2B80,2`+*3PEbfHZJv6wZh-7mredacted;'c%y8ku+!(M45
     M45F201 KB2023 11 12q;g!NqOYclickfQn6M*gaLtR?pxU.iPmE2d`ye5Jed*+oxvv\c8/M45
     M45F201 KC2023 11 25.06709 04 37 14.75 +25 04 56.7    ~BP67 19.3 VZNEOCPW24
     M45F201 KC2023 11 25.08714 04 37 10.83 +25 04 42.3    ~BP67 18.8 VZNEOCPW24
     M45F201 KC2023 11 25.10631 04 37 07.03 +25 04 27.8    ~BP67 19.2 VZNEOCPW24
     M45F201 KC2023 11 25^j(:`'ooJyo2'Velk62/@=$r9TW8=;)F/iM$8w#/Gi6#U\nknW1fM29
     M45F201 KC2023 11 25[]Y576(U+1!nT(rGYPVsF]N(Q?Qb*=wgP3%A;4LiA4Km5*wEeqkHM29
     M45F201 KV2023 11 26yNT?%#v:kL'Jmv^tV'ojRbZ6:YUeK$dS2]X(aTBRZ#V(ynUuq'34247
     M45F201  v2023 11 26='mslrQWKcn]kUkhaLk=.E10T`[TgHB_P6XB.cS4qqWc9?i_\w^H247
     M45F201 KV2023 11 26a8.vGPDi5tYGqh0$V6'a8D!W3:mdxo%jX!7.F'wt`DE(.$8D*@+B247
     M45F201  v2023 11 26d`SRT!,pvwNw46Co3r01=l?A+c%Iic0Ar18$'4U0ej/9h[Iyx?t!247
     M45F201 KV2023 11 26\_VI#fEuw]SYK/C6SCyl1Zp13f*ag@aGqp]^;here2[RenWN7H[5247
     M45F201  v2023 11 26GNF\x1Ido0+6KRpBSr?$^0\3*n7+v7At#j^rCb%uXHReN$*D(i/V247
     M45F201 KV2023 11 261$b!9)OpthiN1+TadVm)^q4)SW8r3#Nk%6Fr@vin2vO=Pj[,]ek.247
     M45F201  v2023 11 26SNbdf4QCbBHyitsfor?=g])cf!nW\Tn!y#.Mermyexplanation#247
     M45F201 KC2023 11 306;F8:ig3.*TkhrWifh%t]'t`i!%IX?9s?,h.s!pW0aE(shH;nvxuL90
     M45F201 KC2023 11 30J8qZOOTh#sNk(!FRYV:X8g!:(ok[D;MbAEwJNQmQJAB,Ci_VyShlL90
     M45F201 KC2023 11 30ti`V^Q7\GeEBdBm8M`jw[f^X/w4/*WU$oZ_GLuHktjU7mCQ7u3$YL90

Station data:
(247) Roving Observer  (N42.793200 E11.953100)  Italy.
(L90) ABObservatory, Rosarno  (N38.455733 E15.979490)  Italy.
(M29) O.M.Ni.A. Observatory, Cesena  (N44.147745 E12.248640)  Italy.
(M45) Starhopper Observatory, Sfantu Gheorghe  (N45.865582 E25.768900)
   Romania.  Observer F. Ursache. 0.41-m f/7.5 reflector + CMO.
(W24) Shamrock Banks Observatory, Clare  (N43.830757 W84.761830)  US/Michigan.
     Observer R. Townsend. 0.20-m f/8 Richey Chretien + CCD.

Orbital elements:  M45F201
   Perihelion 2024 Feb 29.65512 +/- 0.033 TT = 15:43:22 (JD 2460370.15512)
Epoch 2023 Nov 30.0 TT = JDT 2460278.5   Earth MOID: 0.0035      AutoNEOCP
M 270.59096917 +/- 0.021            (J2000 ecliptic)
n   0.97549411 +/- 0.000118         Peri.  275.67913 +/- 0.07
a   1.00689985 +/- 8.15e-5          Node   249.89214 +/- 0.0008
e   0.0786287 +/- 0.000487          Incl.    0.71203 +/- 0.0050
P   1.01/369.04d           H 25.84  G  0.15   U  6.7
q 0.92772854 +/- 0.000416    Q 1.08607117 +/- 0.000579
12 of 15 observations 2023 Nov. 12-30; mean residual 0".66
Residuals in arcseconds: 
231112 M45( .06+  3.0+)   231125 W24  .84-  .13-    231126 247  .70+  1.2+    
231112 M45  .10+  .17+    231125 M29  1.2+  .18+    231126 247  .42+  .47+    
231112 M45( .17+  2.1-)   231125 M29  .18-  .71-    231130 L90  .05+  .50-    
231125 W24  .09+  1.1-    231126 247  .39-  1.1+    231130 L90  .28-  .19+    
231125 W24  1.4-  .57-    231126 247  .52+  .15+    231130 L90( .17-  5.1+)   

Ephemerides (geocentric):
Date (UTC) HH   RA             Dec           delta  r     elong  mag " sig PA
---- --------  ------------   ------------  ------ ------ -----  --- --------
2023 12 02 01  04 13 32.687   +21 43 36.66  .02358 1.0095 176.1 18.1 .734 130
2023 12 02 02  04 13 21.505   +21 41 53.66  .02353 1.0095 176.0 18.1 .737 129
2023 12 02 03  04 13 10.282   +21 40 10.20  .02349 1.0094 176.0 18.1 .740 127
2023 12 02 04  04 12 59.019   +21 38 26.27  .02344 1.0094 175.9 18.1 .744 126
2023 12 02 05  04 12 47.715   +21 36 41.87  .02339 1.0093 175.8 18.1 .748 125
2023 12 02 06  04 12 36.370   +21 34 57.00  .02334 1.0093 175.7 18.1 .752 124
2023 12 02 07  04 12 24.983   +21 33 11.64  .02330 1.0092 175.6 18.1 .757 122
2023 12 02 08  04 12 13.556   +21 31 25.81  .02325 1.0092 175.5 18.1 .763 121
2023 12 02 09  04 12 02.087   +21 29 39.49  .02320 1.0091 175.4 18.1 .770 120
2023 12 02 10  04 11 50.576   +21 27 52.69  .02316 1.0090 175.3 18.1 .777 118
2023 12 02 11  04 11 39.024   +21 26 05.40  .02311 1.0090 175.2 18.1 .784 117
2023 12 02 12  04 11 27.429   +21 24 17.62  .02306 1.0089 175.2 18.1 .792 116
2023 12 02 13  04 11 15.793   +21 22 29.35  .02301 1.0089 175.1 18.1 .801 115
2023 12 02 14  04 11 04.114   +21 20 40.58  .02297 1.0088 175.0 18.1 .811 113
2023 12 02 15  04 10 52.392   +21 18 51.31  .02292 1.0088 174.9 18.1 .821 112
2023 12 02 16  04 10 40.628   +21 17 01.55  .02287 1.0087 174.8 18.1 .832 111
2023 12 02 17  04 10 28.821   +21 15 11.28  .02283 1.0086 174.7 18.1 .844 109
2023 12 02 18  04 10 16.971   +21 13 20.50  .02278 1.0086 174.6 18.1 .857 108
2023 12 02 19  04 10 05.078   +21 11 29.21  .02273 1.0085 174.5 18.1 .870 107
2023 12 02 20  04 09 53.141   +21 09 37.41  .02269 1.0085 174.4 18.1 .884 105
2023 12 02 21  04 09 41.161   +21 07 45.10  .02264 1.0084 174.3 18.1 .899 104
2023 12 02 22  04 09 29.138   +21 05 52.27  .02259 1.0084 174.2 18.1 .914 103
2023 12 02 23  04 09 17.070   +21 03 58.92  .02255 1.0083 174.1 18.1 .931 102
2023 12 03 00  04 09 04.958   +21 02 05.04  .02250 1.0083 174.0 18.1 .948 101
2023 12 03 01  04 08 52.802   +21 00 10.64  .02245 1.0082 174.0 18.1 .966  99
2023 12 03 02  04 08 40.601   +20 58 15.72  .02241 1.0081 173.9 18.1 .985  98
2023 12 03 03  04 08 28.356   +20 56 20.25  .02236 1.0081 173.8 18.1 1.00  97
2023 12 03 04  04 08 16.066   +20 54 24.26  .02231 1.0080 173.7 18.1 1.02  96
2023 12 03 05  04 08 03.731   +20 52 27.73  .02227 1.0080 173.6 18.1 1.05  95
2023 12 03 06  04 07 51.351   +20 50 30.65  .02222 1.0079 173.5 18.1 1.07  94
2023 12 03 07  04 07 38.925   +20 48 33.04  .02218 1.0079 173.4 18.1 1.09  93
2023 12 03 08  04 07 26.454   +20 46 34.87  .02213 1.0078 173.3 18.1 1.11  92
2023 12 03 09  04 07 13.937   +20 44 36.16  .02208 1.0077 173.2 18.1 1.14  91
2023 12 03 10  04 07 01.375   +20 42 36.90  .02204 1.0077 173.1 18.1 1.16  90
2023 12 03 11  04 06 48.766   +20 40 37.07  .02199 1.0076 173.0 18.1 1.19  89
2023 12 03 12  04 06 36.110   +20 38 36.70  .02195 1.0076 172.9 18.1 1.22  88
2023 12 03 13  04 06 23.409   +20 36 35.75  .02190 1.0075 172.8 18.1 1.24  87
2023 12 03 14  04 06 10.660   +20 34 34.25  .02185 1.0075 172.7 18.1 1.27  87
2023 12 03 15  04 05 57.865   +20 32 32.18  .02181 1.0074 172.6 18.1 1.30  86
2023 12 03 16  04 05 45.022   +20 30 29.53  .02176 1.0074 172.5 18.1 1.33  85
2023 12 03 17  04 05 32.133   +20 28 26.31  .02172 1.0073 172.4 18.1 1.36  84
2023 12 03 18  04 05 19.195   +20 26 22.52  .02167 1.0072 172.3 18.1 1.40  83
2023 12 03 19  04 05 06.210   +20 24 18.14  .02162 1.0072 172.2 18.1 1.43  83
2023 12 03 20  04 04 53.178   +20 22 13.18  .02158 1.0071 172.1 18.1 1.46  82
2023 12 03 21  04 04 40.097   +20 20 07.64  .02153 1.0071 172.0 18.1 1.50  81
2023 12 03 22  04 04 26.968   +20 18 01.50  .02149 1.0070 171.9 18.1 1.53  81
2023 12 03 23  04 04 13.790   +20 15 54.77  .02144 1.0070 171.8 18.1 1.57  80
2023 12 04 00  04 04 00.564   +20 13 47.44  .02140 1.0069 171.7 18.1 1.60  79